Regional Weather Roundup
Issued by NWS

Home | Current Version | Previous Version | Text Only | Print | Product List | Glossary Off
Versions: 1 2 3 4 5 6 7 8 9 10 11 12 13 14 15 16 17 18 19 20 21 22 23 24 25 26 27 28 29 30 31 32 33 34 35 36 37 38 39 40 41 42 43 44 45 46 47 48 49 50

000
ASUS43 KDTX 302310
RWRMI
MICHIGAN HOURLY REGIONAL WEATHER ROUNDUP
NATIONAL WEATHER SERVICE DETROIT/PONTIAC MI
700 PM EDT THU JUL 30 2015

NOTE: "FAIR" INDICATES FEW OR NO CLOUDS BELOW 12,000 FEET WITH NO
SIGNIFICANT WEATHER AND/OR OBSTRUCTION TO VISIBILITY.

MIZ047>049-052>055-059>063-066>070-074>076-081>083-310000-
SOUTHEAST LOWER MICHIGAN

CITY           SKY/WX    TMP DP  RH WIND       PRES   REMARKS
ADRIAN         SUNNY     81  56  42 NW10G23   29.98F
ALMA           MOSUNNY   82  55  39 W17G23    29.94R
ANN ARBOR      SUNNY     82  56  40 W14       29.95S
BAD AXE        SUNNY     81  53  37 W15G21    29.88S
CARO           MOSUNNY   82  55  39 W17       29.89S
DETROIT CITY   SUNNY     84  54  35 W15G24    29.91S
DETROIT        MOSUNNY   84  56  38 W16G24    29.93S
FLINT          MOSUNNY   83  55  38 W15G29    29.93R
GROSSE ILE     SUNNY     84  55  37 W15G22    29.92S
HILLSDALE      SUNNY     81  54  39 W16       30.01S
HOWELL         SUNNY     81  52  36 W14G22    29.96R

CITY           SKY/WX    TMP DP  RH WIND       PRES   REMARKS
JACKSON        SUNNY     79  57  46 W12       29.99R
LAMBERTVILLE   SUNNY     83  55  37 W9G16     29.97S
LANSING        SUNNY     82  56  40 W14G25    29.96S
LAPEER         FAIR      82  53  36 NW9G18    29.92R
MASON          MOSUNNY   78  56  46 W12       29.97S
MONROE         SUNNY     82  58  42 W12G22    29.94S
MT. CLEMENS    MOSUNNY   83  55  38 W14G26    29.89S
PONTIAC        MOSUNNY   82  56  40 W17G24    29.93S
PORT HOPE        N/A     83  55  38 W9G21     29.85R
PORT HURON     MOSUNNY   81  57  44 W6        29.90S
TRI CITIES     SUNNY     83  54  36 W20       29.91S
MIDLAND        FAIR      83  53  35 W13G21    29.89S
TROY           SUNNY     84  53  33 NW15G23   29.94S
SAGINAW HB     SUNNY     82  54  36 W17G24    29.90R
$$
MIZ043>046-050>051-056>058-064>065-071>073-077>080-310000-
SOUTHWEST LOWER MICHIGAN

CITY           SKY/WX    TMP DP  RH WIND       PRES   REMARKS
BATTLE CREEK   SUNNY     83  56  39 NW15G21   30.00F
BENTON HARBOR  SUNNY     82  60  47 W14       30.00F
BIG RAPIDS     SUNNY     81  50  34 W13G21    29.93F
COLDWATER      SUNNY     80  52  38 W13G18    30.01S
FREMONT        FAIR      82  51  35 W9        29.95S
HOLLAND        SUNNY     81  60  48 W10       29.98F
GRAND RAPIDS   MOSUNNY   83  55  38 W18G28    29.97S
IONIA          FAIR      82  53  36 W17G23    29.95S
KALAMAZOO      SUNNY     83  56  39 W9        30.00S
LUDINGTON      SUNNY     78  64  60 W5        29.94S
MARSHALL       SUNNY     81  56  42 W12       29.99S
MOUNT PLEASANT MOSUNNY   84  53  35 W13G21    29.92S
MUSKEGON       MOSUNNY   81  56  42 W10       29.96F
SOUTH HAVEN    SUNNY     80  60  51 W10       29.99F
$$
MIZ016>042-310000-
NORTHERN LOWER MICHIGAN

CITY           SKY/WX    TMP DP  RH WIND       PRES   REMARKS
ALPENA         MOSUNNY   82  52  35 NW13G23   29.86R
BEAVER ISLAND  SUNNY     76  51  40 CALM      29.89S
BELLAIRE       SUNNY     79  54  41 NW8       29.89S
CADILLAC       SUNNY     80  52  37 W18G25    29.93S
CHARLEVOIX     SUNNY     74  59  59 N5        29.92S
FRANKFORT      SUNNY     76  62  63 SW3       29.91S
GAYLORD        SUNNY     78  50  37 NW10G21   29.91R
GRAYLING       SUNNY     79  52  38 NW16G22   29.91S
HARBOR SPRINGS SUNNY     77  53  42 W5        29.88S
HOUGHTON LAKE  MOSUNNY   80  52  37 W15       29.92R
MANISTEE       SUNNY     79  57  47 W10       29.93R
OSCODA         SUNNY     84  51  32 W13G28    29.85S
PELLSTON       SUNNY     77  52  41 NW14      29.89R
ROGERS CITY    SUNNY     73  60  64 NW10G16   29.87S
TRAVERSE CITY  MOSUNNY   84  51  31 NW10      29.88S
$$
MIZ007>008-015-310000-
EASTERN UPPER MICHIGAN

CITY           SKY/WX    TMP DP  RH WIND       PRES   REMARKS
KINROSS        MOSUNNY   72  52  49 NW10G21   29.87S
MACKINAC ISLAN MOSUNNY   73  51  46 NW8G17    29.87R
MUNISING         N/A     74  58  57 N8        29.86F
$$
MIZ004>006-011>014-085-310000-
CENTRAL UPPER MICHIGAN

CITY           SKY/WX    TMP DP  RH WIND       PRES   REMARKS
MANISTIQUE     PTSUNNY   82  50  32 NW7       29.85F
ESCANABA       MOSUNNY   81  50  34 W8        29.86F
MENOMINEE      MOSUNNY   81  54  39 N8        29.90R
SAWYER-GWINN   SUNNY     79  48  34 W15G21    29.89S
$$
MIZ001>003-009>011-084-310000-
WESTERN UPPER MICHIGAN

CITY           SKY/WX    TMP DP  RH WIND       PRES   REMARKS
IRON MOUNTAIN  PTSUNNY   76  53  44 NW12      29.92R
HOUGHTON       SUNNY     75  53  46 W15       29.86S
COPPER HARBOR    N/A     78  54  43 NW9G18    29.82S
IRONWOOD       SUNNY     75  61  60 W9        29.89S
$$

ABBREVIATIONS USED IN REMARKS
   TC - TEMPERATURE IN CELSIUS
  WCI - WIND CHILL INDEX
   HX - HEAT INDEX
  VSB - VISIBILITY




USA.gov is the U.S. government's official web portal to all federal, state and local government web resources and services.